Regional Weather Roundup
Issued by NWS

Home | Current Version | Previous Version | Text Only | Print | Product List | Glossary On
Versions: 1 2 3 4 5 6 7 8 9 10 11 12 13 14 15 16 17 18 19 20 21 22 23 24 25 26 27 28 29 30 31 32 33 34 35 36 37 38 39 40 41 42 43 44 45 46 47 48 49 50
000
ASUS43 KIND 251900
RWRIN

WEATHER ROUNDUP FOR INDIANA
NATIONAL WEATHER SERVICE INDIANAPOLIS IN
300 PM EDT MON SEP 25 2017

NOTE: "FAIR" INDICATES FEW OR NO CLOUDS BELOW 12,000 FEET WITH NO
SIGNIFICANT WEATHER AND/OR OBSTRUCTIONS TO VISIBILITY.

* - STATION DOES NOT REPORT WEATHER SUCH AS PRECIPITATION OR FOG.

+ - STATION NOT QUALITY CONTROLLED BY THE NATIONAL WEATHER SERVICE.
    USE DATA WITH CAUTION...ESPECIALLY DEWPOINT AND RELATIVE
    HUMIDITY OBSERVATIONS.

INZ001>003-010>013-019-020-252000-
NORTHWEST INDIANA

CITY           SKY/WX    TMP DP  RH WIND       PRES   REMARKS
GARY /AIRPORT/ MOSUNNY   91  46  21 SE7       29.98F

$$

LMZ046-743>745-252000-
SOUTHERN LAKE MICHIGAN

STATION/POSITION TIME  TEMP    WIND        PRES    WAVE
                       AIR SEA DIR/SP/G            HT
                 (UTC) (F)     (DEG/KT/KT) (MB)    (FT)
BURNS HARBOR     1840   79     330/  4/  6 1015.9F
MICHIGAN CITY    1830   85     120/  6/  7   N/A
5NW MICH CITY    1850   79 75   70/  4/  6   N/A     0

$$

INZ004-005-014>016-021>024-252000-
NORTH CENTRAL INDIANA

CITY           SKY/WX    TMP DP  RH WIND       PRES   REMARKS
ELKHART        MOSUNNY   86  55  35 CALM      30.01F
GOSHEN         SUNNY     87  52  29 MISG      30.01F
SOUTH BEND     MOSUNNY   86  54  33 SE7       30.01F

$$

INZ006>009-017-018-025>027-252000-
NORTHEAST INDIANA

CITY           SKY/WX    TMP DP  RH WIND       PRES   REMARKS
FORT WAYNE     MOSUNNY   88  59  37 NE3       30.02F
KENDALLVILLE + SUNNY     86  57  37 CALM      30.03F

$$

INZ028-029-035-036-043>045-051>053-252000-
WEST CENTRAL INDIANA

CITY           SKY/WX    TMP DP  RH WIND       PRES   REMARKS
LAFAYETTE      SUNNY     87  59  38 MISG      29.98F
TERRE HAUTE    MOSUNNY   90  60  36 CALM      29.98F

$$

INZ030>032-037>040-046>048-054>057-064-065-252000-
CENTRAL INDIANA

CITY           SKY/WX    TMP DP  RH WIND       PRES   REMARKS
COLUMBUS       MOSUNNY   86  50  28 CALM      30.00F
GREENWOOD *+   SUNNY     91  61  36 CALM      30.02F
INDIANAPOLIS   MOSUNNY   87  58  37 E6        30.00F
-EAGLE CREEK   SUNNY     89  55  31 CALM      29.99F
KOKOMO +       SUNNY     88  58  36 VRB6      30.01F
MT COMFORT *+  SUNNY     88  57  35 N3        30.02F
SHELBYVILLE    MOSUNNY   89  58  34 VRB5      30.00F

$$

INZ033-034-041-042-049-050-058-059-252000-
EAST CENTRAL INDIANA

CITY           SKY/WX    TMP DP  RH WIND       PRES   REMARKS
MUNCIE         SUNNY     89  54  30 CALM      30.01F
RICHMOND +     SUNNY     86  59  39 SW3       30.04F

$$

INZ060-061-067>069-081>083-085>088-252000-
SOUTHWEST INDIANA

CITY           SKY/WX    TMP DP  RH WIND       PRES   REMARKS
EVANSVILLE     MOSUNNY   89  63  41 CALM      29.98F
HUNTINGBURG +  MOSUNNY   84  69  60 W6        29.99F

$$

INZ062-063-066-070>080-084-089>092-252000-
SOUTH CENTRAL AND SOUTHEAST INDIANA

CITY           SKY/WX    TMP DP  RH WIND       PRES   REMARKS
BLOOMINGTON    PTSUNNY   88  61  40 S9        30.00F
MADISON *+     MOSUNNY   88  61  40 SW5       30.03F
SEYMOUR +      MOSUNNY   90  63  40 SE7       30.00F

$$





USA.gov is the U.S. government's official web portal to all federal, state and local government web resources and services.